FW5407 Weather Reports


time (UTC)temp
C
wind
direction
speed
KPH
gust
KPH
rain 1hr
cm
rain 24hr
cm
rain mn
cm
humidity
%
barometer
mb
20260505091120 10 18 1.6 8.0 0.00 0.00 0.00 88 1009.0
20260505090515 11 18 1.6 8.0 0.00 0.00 0.00 88 1009.0
20260505090014 11 321 3.2 8.0 0.00 0.00 0.00 88 1008.9
20260505085514 11 289 3.2 6.4 0.00 0.00 0.00 87 1008.8
20260505085013 11 8 3.2 6.4 0.00 0.00 0.00 87 1008.8
20260505084518 11 32 1.6 6.4 0.00 0.00 0.00 87 1008.8
20260505084013 11 335 1.6 11.3 0.00 0.00 0.00 86 1008.8
20260505083512 11 305 3.2 11.3 0.00 0.00 0.00 86 1008.7
20260505083014 11 308 1.6 11.3 0.00 0.00 0.00 86 1008.7
20260505082511 11 305 3.2 8.0 0.00 0.00 0.00 86 1008.6
20260505082013 11 328 3.2 11.3 0.00 0.00 0.00 86 1008.6
20260505081510 11 338 3.2 9.7 0.00 0.00 0.00 87 1008.4
20260505081110 11 333 3.2 8.0 0.00 0.00 0.00 88 1008.3
20260505080509 11 34 3.2 8.0 0.00 0.00 0.00 88 1008.3
20260505080009 10 350 3.2 11.3 0.00 0.00 0.00 89 1008.3
20260505075609 10 26 3.2 11.3 0.00 0.00 0.00 89 1008.3
20260505075012 10 332 3.2 8.0 0.00 0.00 0.00 88 1008.2
20260505074507 11 287 3.2 16.1 0.00 0.00 0.00 88 1008.2
20260505074006 11 1 3.2 16.1 0.00 0.00 0.00 87 1008.1
20260505073505 11 23 4.8 11.3 0.00 0.00 0.00 87 1008.0
20260505073008 11 305 4.8 14.5 0.00 0.00 0.00 87 1008.0
20260505072505 11 301 6.4 14.5 0.00 0.00 0.00 87 1007.9
20260505072002 11 11 3.2 8.0 0.00 0.00 0.00 87 1007.9
20260505071506 11 316 1.6 4.8 0.00 0.00 0.00 86 1007.8
20260505071102 11 343 1.6 6.4 0.00 0.00 0.00 86 1007.7
20260505070506 11 23 0.0 6.4 0.00 0.00 0.00 86 1007.7
20260505070006 11 18 1.6 6.4 0.00 0.00 0.00 86 1007.7
20260505065505 11 349 1.6 4.8 0.00 0.00 0.00 86 1007.6
20260505065004 11 18 1.6 6.4 0.00 0.00 0.00 85 1007.6
20260505064511 11 335 0.0 8.0 0.00 0.00 0.00 85 1007.6
20260505064002 11 328 3.2 8.0 0.00 0.00 0.00 86 1007.5
20260505063504 11 354 0.0 0.0 0.00 0.00 0.00 86 1007.4
20260505063001 11 352 0.0 1.6 0.00 0.00 0.00 86 1007.3
20260505062601 11 351 0.0 1.6 0.00 0.00 0.00 86 1007.3
20260505062103 11 351 0.0 0.0 0.00 0.00 0.00 86 1007.2
20260505061602 11 351 0.0 1.6 0.00 0.00 0.00 86 1007.2
20260505061059 11 352 0.0 0.0 0.00 0.00 0.00 85 1007.2
20260505060526 11 352 0.0 0.0 0.00 0.00 0.00 85 1007.2
20260505060021 11 352 0.0 0.0 0.00 0.00 0.00 84 1007.2
20260505055521 11 352 0.0 0.0 0.00 0.00 0.00 84 1007.0
20260505055022 11 353 0.0 0.0 0.00 0.00 0.00 84 1006.9
20260505054532 11 352 0.0 0.0 0.00 0.00 0.00 84 1007.0
20260505054019 11 352 0.0 0.0 0.00 0.00 0.00 84 1006.9
20260505053518 11 352 0.0 0.0 0.00 0.00 0.00 84 1006.9
20260505053027 11 352 0.0 0.0 0.00 0.00 0.00 84 1006.8
20260505052519 11 352 0.0 1.6 0.00 0.00 0.00 84 1006.8
20260505052017 12 352 0.0 1.6 0.00 0.00 0.00 84 1006.7
20260505051531 12 352 0.0 1.6 0.00 0.00 0.00 84 1006.7
20260505051116 12 352 0.0 0.0 0.00 0.00 0.00 84 1006.6
20260505050547 12 352 0.0 1.6 0.00 0.00 0.00 84 1006.5
20260505041539 13 352 0.0 1.6 0.00 0.00 0.00 80 1006.2
20260505041138 13 352 1.6 4.8 0.00 0.00 0.00 79 1006.0
20260505040518 13 352 1.6 4.8 0.00 0.00 0.00 79 1006.0
20260505040025 13 347 0.0 4.8 0.00 0.00 0.00 79 1005.9
20260505035513 13 13 0.0 0.0 0.00 0.00 0.00 79 1005.9
20260505035014 13 352 0.0 0.0 0.00 0.00 0.00 79 1005.8
20260505034512 13 352 0.0 0.0 0.00 0.00 0.00 78 1005.8
20260505034016 13 345 0.0 0.0 0.00 0.00 0.00 78 1005.8
20260505033611 13 340 0.0 0.0 0.00 0.00 0.00 77 1005.7
20260505033050 14 340 0.0 0.0 0.00 0.00 0.00 77 1005.7
20260505032549 14 348 0.0 0.0 0.00 0.00 0.00 75 1005.6
20260505032048 14 348 0.0 0.0 0.00 0.00 0.00 75 1005.6
20260505031546 14 348 0.0 3.2 0.00 0.00 0.00 74 1005.6
20260505031050 15 330 0.0 6.4 0.00 0.00 0.00 74 1005.5
20260505030548 15 344 1.6 6.4 0.00 0.00 0.00 74 1005.5
20260505030047 15 18 1.6 3.2 0.00 0.00 0.00 74 1005.4
20260505025546 15 4 3.2 3.2 0.00 0.00 0.00 73 1005.4
20260505025044 15 18 0.0 0.0 0.00 0.00 0.00 73 1005.3
20260505024545 15 10 0.0 0.0 0.00 0.00 0.00 73 1005.4
20260505024042 15 33 0.0 0.0 0.00 0.00 0.00 74 1005.4
20260505023108 15 32 0.0 0.0 0.00 0.00 0.00 74 1005.4
20260505022558 15 321 0.0 0.0 0.00 0.00 0.00 74 1005.4
20260505022057 15 23 0.0 0.0 0.00 0.00 0.00 74 1005.4
20260505021600 15 23 0.0 0.0 0.00 0.00 0.00 73 1005.5
20260505021056 15 23 0.0 0.0 0.00 0.00 0.00 73 1005.6
20260505020554 15 20 0.0 0.0 0.00 0.00 0.00 73 1005.5
20260505020057 15 345 0.0 0.0 0.00 0.00 0.00 72 1005.6
20260505015553 15 354 0.0 0.0 0.00 0.00 0.00 72 1005.6
20260505015057 15 311 0.0 0.0 0.00 0.00 0.00 72 1005.6
20260505014552 16 43 0.0 0.0 0.00 0.00 0.00 71 1005.7
20260505014050 16 32 0.0 0.0 0.00 0.00 0.00 69 1005.7
20260505013027 17 26 0.0 1.6 0.00 0.00 0.00 66 1005.8
20260505012529 17 41 0.0 0.0 0.00 0.00 0.00 63 1005.8
20260505012024 18 32 0.0 0.0 0.00 0.00 0.00 60 1005.7
20260505011523 18 41 0.0 0.0 0.00 0.00 0.00 57 1005.7
20260505011021 19 73 0.0 0.0 0.00 0.00 0.00 55 1005.8
20260505010521 20 65 0.0 4.8 0.00 0.00 0.00 52 1005.8
20260505010021 20 53 0.0 4.8 0.00 0.00 0.00 51 1005.8
20260505005523 20 36 0.0 1.6 0.00 0.00 0.00 49 1005.8
20260505005021 20 56 0.0 3.2 0.00 0.00 0.00 49 1005.8
20260505004521 21 44 0.0 6.4 0.00 0.00 0.00 49 1005.9
20260505004021 21 50 1.6 6.4 0.00 0.00 0.00 48 1005.9
20260505003012 21 34 0.0 6.4 0.00 0.00 0.00 49 1005.9
20260505002511 21 14 0.0 6.4 0.00 0.00 0.00 48 1005.9
20260505002011 21 44 1.6 6.4 0.00 0.00 0.00 48 1006.0
20260505001511 21 26 0.0 6.4 0.00 0.00 0.00 48 1006.0
20260505001014 21 38 1.6 4.8 0.00 0.00 0.00 49 1006.0
20260505000512 21 36 0.0 3.2 0.00 0.00 0.00 50 1006.0
20260505000010 21 23 0.0 8.0 0.00 0.00 0.00 50 1006.0
20260504235510 22 74 3.2 8.0 0.00 0.00 0.00 48 1006.0
20260504235010 22 75 1.6 8.0 0.00 0.00 0.00 47 1006.0
20260504234509 22 61 0.0 4.8 0.00 0.00 0.00 47 1006.1
20260504234009 23 41 0.0 4.8 0.00 0.00 0.00 47 1006.1
20260504233011 23 20 0.0 3.2 0.00 0.00 0.00 44 1006.1
20260504232509 24 18 0.0 1.6 0.00 0.00 0.00 45 1006.1
20260504232013 24 313 0.0 1.6 0.00 0.00 0.00 46 1006.2
20260504231508 23 49 0.0 4.8 0.00 0.00 0.00 45 1006.2
20260504231009 23 51 1.6 4.8 0.00 0.00 0.00 45 1006.3
20260504230508 24 50 1.6 4.8 0.00 0.00 0.00 44 1006.3
20260504230009 23 71 0.0 4.8 0.00 0.00 0.00 46 1006.4
20260504225511 23 58 1.6 8.0 0.00 0.00 0.00 46 1006.4
20260504225009 23 18 1.6 8.0 0.00 0.00 0.00 45 1006.5
20260504224509 24 122 1.6 9.7 0.00 0.00 0.00 45 1006.5
20260504224007 24 102 0.0 9.7 0.00 0.00 0.00 45 1006.5
20260504223008 25 84 0.0 3.2 0.00 0.00 0.00 46 1006.5
20260504222508 25 29 0.0 3.2 0.00 0.00 0.00 46 1006.5
20260504222009 25 29 0.0 3.2 0.00 0.00 0.00 45 1006.5
20260504221511 25 71 0.0 4.8 0.00 0.00 0.00 45 1006.5
20260504221008 25 70 1.6 4.8 0.00 0.00 0.00 45 1006.6
20260504220508 25 76 0.0 4.8 0.00 0.00 0.00 44 1006.5
20260504220008 25 111 0.0 4.8 0.00 0.00 0.00 41 1006.6
20260504215507 26 51 0.0 4.8 0.00 0.00 0.00 44 1006.6
20260504215007 26 120 0.0 1.6 0.00 0.00 0.00 40 1006.7
20260504214508 25 56 0.0 4.8 0.00 0.00 0.00 42 1006.7
20260504214008 25 302 0.0 4.8 0.00 0.00 0.00 41 1006.7
20260504213008 26 321 0.0 6.4 0.00 0.00 0.00 44 1006.8
20260504212507 26 269 0.0 3.2 0.00 0.00 0.00 43 1006.8
20260504212003 25 49 0.0 4.8 0.00 0.00 0.00 45 1006.8
20260504211503 25 102 0.0 6.4 0.00 0.00 0.00 44 1006.8
20260504211003 25 60 0.0 6.4 0.00 0.00 0.00 44 1006.8
20260504210505 25 113 0.0 9.7 0.00 0.00 0.00 43 1006.8
20260504210004 25 128 1.6 9.7 0.00 0.00 0.00 42 1006.8
20260504205503 25 45 1.6 4.8 0.00 0.00 0.00 42 1006.9
20260504205000 25 122 1.6 6.4 0.00 0.00 0.00 47 1007.0
20260504204600 25 107 3.2 6.4 0.00 0.00 0.00 45 1007.0
20260504204100 25 86 0.0 6.4 0.00 0.00 0.00 46 1007.1
20260504203702 24 226 1.6 8.0 0.00 0.00 0.00 42 1007.1
20260504203100 25 22 3.2 8.0 0.00 0.00 0.00 42 1007.1
20260504202558 24 23 0.0 6.4 0.00 0.00 0.00 44 1007.1
20260504202059 23 20 0.0 6.4 0.00 0.00 0.00 44 1007.2
20260504201558 24 20 0.0 4.8 0.00 0.00 0.00 43 1007.2
20260504201056 23 68 0.0 3.2 0.00 0.00 0.00 46 1007.3
20260504200556 23 62 0.0 6.4 0.00 0.00 0.00 47 1007.3
20260504200100 23 129 0.0 6.4 0.00 0.00 0.00 47 1007.3
20260504195555 23 18 0.0 1.6 0.00 0.00 0.00 46 1007.2
20260504195055 23 27 0.0 3.2 0.00 0.00 0.00 47 1007.3
20260504194556 23 41 0.0 3.2 0.00 0.00 0.00 46 1007.2
20260504194055 23 55 0.0 3.2 0.00 0.00 0.00 46 1007.2
20260504193654 22 49 0.0 0.0 0.00 0.00 0.00 50 1007.2
20260504193055 22 315 0.0 0.0 0.00 0.00 0.00 49 1007.2
20260504192555 22 71 0.0 0.0 0.00 0.00 0.00 49 1007.2
20260504192055 22 146 0.0 4.8 0.00 0.00 0.00 51 1007.2
20260504191558 21 274 1.6 9.7 0.00 0.00 0.00 51 1007.3
20260504191054 21 44 1.6 11.3 0.00 0.00 0.00 53 1007.3
20260504190554 21 136 4.8 11.3 0.00 0.00 0.00 52 1007.3
20260504190108 22 101 1.6 8.0 0.00 0.00 0.00 50 1007.3
20260504185553 22 350 0.0 4.8 0.00 0.00 0.00 50 1007.4
20260504185052 22 32 0.0 0.0 0.00 0.00 0.00 51 1007.4
20260504184609 21 39 0.0 0.0 0.00 0.00 0.00 54 1007.4
20260504184049 20 68 0.0 1.6 0.00 0.00 0.00 55 1007.4
20260504183648 20 23 1.6 6.4 0.00 0.00 0.00 56 1007.4
20260504183053 20 113 3.2 6.4 0.00 0.00 0.00 55 1007.5
20260504182550 20 124 0.0 6.4 0.00 0.00 0.00 58 1007.5
20260504182048 20 142 0.0 8.0 0.00 0.00 0.00 59 1007.5
20260504181549 19 113 3.2 8.0 0.00 0.00 0.00 57 1007.5
20260504181047 19 128 0.0 9.7 0.00 0.00 0.00 57 1007.5
20260504180547 19 210 0.0 9.7 0.00 0.00 0.00 57 1007.5
20260504180048 18 120 0.0 8.0 0.00 0.00 0.00 58 1007.5
20260504175546 18 122 0.0 9.7 0.00 0.00 0.00 61 1007.5
20260504175047 18 114 0.0 9.7 0.00 0.00 0.00 61 1007.6
20260504174547 18 131 1.6 8.0 0.00 0.00 0.00 58 1007.6
20260504174046 18 145 1.6 8.0 0.00 0.00 0.00 59 1007.6
20260504173647 18 131 3.2 8.0 0.00 0.00 0.00 58 1007.5
20260504173055 18 126 3.2 9.7 0.00 0.00 0.00 58 1007.6
20260504172551 18 187 0.0 11.3 0.00 0.00 0.00 60 1007.6
20260504172050 19 125 1.6 11.3 0.00 0.00 0.00 56 1007.6
20260504171549 19 102 0.0 3.2 0.00 0.00 0.00 59 1007.6
20260504171050 19 135 0.0 4.8 0.00 0.00 0.00 57 1007.5
20260504170549 19 148 0.0 4.8 0.00 0.00 0.00 58 1007.4
20260504151035 13 50 0.0 0.0 0.00 0.00 0.00 84 1007.4
20260504150534 13 49 0.0 0.0 0.00 0.00 0.00 84 1007.4
20260504141033 11 46 0.0 0.0 0.00 0.00 0.00 90 1007.0
20260504140532 11 17 0.0 0.0 0.00 0.00 0.00 91 1006.9
20260504130520 -17 0.0 0.0 0.00 0.00 0.00 1006.3
20260504110559 12 354 0.0 0.0 0.00 0.00 0.00 81 1006.3
20260504100557 12 328 0.0 0.0 0.00 0.00 0.00 76 1006.2